Regional Weather Roundup
Issued by NWS Charleston, SC

Current Version | Previous Version | Graphics & Text | Print | Product List | Glossary On
Versions: 1 2 3 4 5 6 7 8 9 10 11 12 13 14 15 16 17 18 19 20 21 22 23 24 25 26 27 28 29 30 31 32 33 34 35 36 37 38 39 40 41 42 43 44 45 46 47 48 49 50
000
ASUS42 KCHS 171510
RWRCHS
REGIONAL WEATHER ROUNDUP
NATIONAL WEATHER SERVICE CHARLESTON SC
1100 AM EDT WED SEP 17 2014

NOTE: "FAIR" INDICATES FEW OR NO CLOUDS BELOW 12,000 FEET WITH NO
SIGNIFICANT WEATHER AND/OR OBSTRUCTIONS TO VISIBILITY.

NOT ALL STATIONS ARE QUALITY CONTROLLED BY THE NATIONAL
WEATHER SERVICE. USE DATA WITH CAUTION...ESPECIALLY
DEWPOINT OBSERVATIONS.

SCZ027-030-031-034>040-042>050-171600-
...SOUTH CAROLINA...

CITY           SKY/WX    TMP DP  RH WIND       PRES   REMARKS
N CHARLESTON   MOSUNNY   84  71  65 N6        29.93S
WATERFRONT PRK   N/A     81 N/A N/A NE5         N/A
FORT JOHNSON   NOT AVBL
MOUNT PLEASANT FAIR      79  73  83 CALM      29.94R
JOHNS ISLAND   SUNNY     82  82 100 CALM      29.93S HX  97
PINOPOLIS        N/A     75  70  83 E9        29.88R
MONCKS CORNER    N/A     77  72  83 NE8       29.95S
SUMMERVILLE    FAIR      81  72  74 N5        29.95S
BEAUFORT MCAS  PTSUNNY   79  73  82 CALM      29.94S
BEAUFORT ARPT  PTSUNNY   81  75  83 CALM      29.93S
HILTON HEAD IS MOSUNNY   81  72  74 CALM      29.94S
GEORGETOWN     NOT AVBL
WALTERBORO     CLOUDY    73 N/A N/A CALM      29.95S
ORANGEBURG     PTSUNNY   75  68  78 VRB3      29.95S
BARNWELL       FAIR      79  70  73 NE3       29.95F
AIKEN          CLOUDY    72  72 100 CALM      29.99F
MANNING        CLOUDY    77  70  78 N7        29.96S
KINGSTREE      NOT AVBL
COLUMBIA       MOSUNNY   78  66  66 SE5       29.95F
SUMTER         PTSUNNY   75  65  70 E8        29.96S
FLORENCE       CLOUDY    70  65  84 N5        29.98S
MYRTLE BEACH   SUNNY     79  66  65 N8        29.94F
N MYRTLE BEACH SUNNY     78  65  63 N8        29.93F

$$

GAZ063-065-086>088-099>101-113>116-118-119-134-136>141-150-171600-
...GEORGIA...

CITY           SKY/WX    TMP DP  RH WIND       PRES   REMARKS
SAVANNAH ARPT  MOSUNNY   83  70  64 CALM      29.94S
HUNTER AAF     PTSUNNY   81  73  78 SE3       29.92S
FORT STEWART   SUNNY     81  71  73 CALM      29.93S
STATESBORO     NOT AVBL
SYLVANIA       PTSUNNY   80  74  82 CALM      29.95F
CLAXTON        PTSUNNY   79  77  94 CALM      29.95S
THOMSON        CLOUDY    76  74  95 CALM      30.00F
AUGUSTA-BUSH   PTSUNNY   75  69  81 SE3       29.95S
AUGUSTA-DANIEL SUNNY     77  70  79 CALM      29.96S HAZE
SWAINSBORO     FAIR      81  73  78 CALM      29.96S
VIDALIA        SUNNY     81  72  74 CALM      29.95F
ALMA           SUNNY     82  72  71 CALM      29.95S
WAYCROSS       SUNNY     83  77  80 CALM      29.95S HX  92
JESUP          FAIR      86  73  66 CALM      29.94S HX  93
BRUNSWICK      SUNNY     82  70  65 N3        29.95S
SAINT SIMONS   MOSUNNY   82  69  64 N5        29.94R

$$

SCZ027-028-034-036>038-045-046-048>050-GAZ119-141-171600-
...LAKE AND SUPPLEMENTAL COASTAL OBSERVATIONS...

STATION/POSITION TIME  TEMP    WIND        PRES    WAVE   SWELL
                       AIR SEA DIR/SP/G            HT/PER HT/PER/DIR
                 (UTC) (F)     (DEG/KT/KT) (MB)    (FT/S) (FT/S/D)
UPR LAKE MARION  NOT AVBL
WINYAH BAY       1400   74      30/  8     1014.0S
LAKE MURRAY      1400   73      CALM  /  3 1013.9F
ACE BASIN NERRS  1400   76        CALM     1013.0S
FORT PULASKI     1500   78      20/  2/  4 1013.8F
SAPELO ISLAND    1400   80     350/  5     1014.0S

$$

ANZ835-935-AMZ111-154-330-350-352-354-374-450-454-472-171600-
...C-MAN AND BUOY OBSERVATIONS...

STATION/POSITION TIME  TEMP    WIND        PRES    WAVE   SWELL
                       AIR SEA DIR/SP/G            HT/PER HT/PER/DIR
                 (UTC) (F)     (DEG/KT/KT) (MB)    (FT/S) (FT/S/D)
FOLLY BEACH CMAN 1400   80     120/  2/  4 1013.7R
BUOY 41004       1500   78 83   40/ 17/ 21 1012.9R   3/12   2/12
BUOY 41008       1500   79 84  360/ 10/ 10 1013.4R   2/12   2/140/12
5E ST. MARYS GA  1500      84                N/A     2/13   2/110/13
FRYING PAN BUOY  NOT AVBL
BUOY 41025       1500   73      70/ 10/ 12 1014.0F   5/14   5/ 90/14
CAPE LOOKOUT NC  1400   78      40/  9/ 10 1013.3R
BUOY 41002       1437   74 82  290/ 17/ 21 1012.6F   7/13   7/110/13
BUOY 41010       1500   81 85  290/ 14/ 17 1013.4R   4/15   3/130/15
BUOY 41012       NOT AVBL
ST AUGUSTINE FL  1500   78     360/  8/  9 1014.3F
CAPERS NEARSHORE 1400   80      40/  4/  6   N/A
FRIPP NEARSHORE  NOT AVBL


$$


USA.gov is the U.S. government's official web portal to all federal, state and local government web resources and services.